Simultaneous Nadir Overpasses (SNOs) Predictions

Prediction of SNOs between NPP and TERRA Satellite Orbit:

Table of predicted SNOs for the next 14.0 days since TLE Epoch: 12/3/2012
Index Date (NPP) Time (NPP) Lat,Lon (NPP) SZA (NPP ) Date (TERRA) Time (TERRA) Lat,Lon (TERRA) SZA (TERRA ) Distance(km) Time Diff (sec)
1 12/04/2012 03:44:54 -68.36, -58.11 89.48 12/04/2012 03:46:05 -68.34, -57.86 89.50 10.55 71
2 12/04/2012 04:35:36 68.12, 109.50 90.29 12/04/2012 04:35:34 68.13, 109.53 90.29 1.44 2
3 12/04/2012 05:26:17 -67.99, -83.01 89.84 12/04/2012 05:25:05 -67.96, -83.03 89.88 3.21 72
4 12/06/2012 20:01:46 -68.19, 57.88 89.33 12/06/2012 20:02:37 -68.20, 57.85 89.32 1.82 51
5 12/06/2012 20:52:30 68.05,-134.64 90.55 12/06/2012 20:52:04 68.09,-134.64 90.58 3.51 26
6 12/06/2012 21:42:56 -67.11, 33.81 90.39 12/06/2012 21:41:48 -67.19, 31.98 90.32 79.45 68
7 12/09/2012 11:28:15 69.16, 5.03 91.93 12/09/2012 11:29:22 69.03, 7.13 91.80 84.45 67
8 12/09/2012 12:18:40 -68.17, 173.67 89.07 12/09/2012 12:19:06 -68.15, 173.67 89.10 3.12 26
9 12/09/2012 13:09:24 68.04, -18.86 90.81 12/09/2012 13:08:33 68.03, -18.82 90.80 1.87 51
10 12/12/2012 03:44:54 68.29, 121.97 91.27 12/12/2012 03:46:04 68.30, 122.10 91.28 5.15 70
11 12/12/2012 04:35:34 -68.10, -70.47 88.92 12/12/2012 04:35:36 -68.08, -70.52 88.94 3.43 2
12 12/12/2012 05:26:16 67.86, 97.14 90.85 12/12/2012 05:25:04 67.91, 96.92 90.89 10.30 72
13 12/14/2012 20:01:48 68.22,-122.16
